EW5212 Weather Reports


time (UTC)temp
F
wind
direction
speed
knots
gust
knots
rain 1hr
in
rain 24hr
in
rain mn
in
humidity
%
barometer
mb
20260505014015 69 0.0 2.6 0.00 0.00 0.00 51 1013.1
20260505013015 70 0.0 2.6 0.00 0.00 0.00 51 1013.0
20260505012017 71 0.0 0.0 0.00 0.00 0.00 50 1012.8
20260505011017 71 0.0 0.9 0.00 0.00 0.00 49 1012.7
20260505010017 71 0.0 2.6 0.00 0.00 0.00 48 1012.6
20260505005017 72 0.0 0.0 0.00 0.00 0.00 47 1012.5
20260505004017 73 90 0.9 2.6 0.00 0.00 0.00 47 1012.4
20260505003017 73 270 0.9 5.2 0.00 0.00 0.00 46 1012.5
20260505002017 73 0.0 0.0 0.00 0.00 0.00 47 1012.5
20260505001017 73 0.0 2.6 0.00 0.00 0.00 46 1012.3
20260505000037 73 293 0.9 3.5 0.00 0.00 0.00 45 1012.6
20260504235057 73 0.0 1.7 0.00 0.00 0.00 44 1012.6
20260504234017 74 0.0 1.7 0.00 0.00 0.00 43 1012.5
20260504233015 74 270 0.9 2.6 0.00 0.00 0.00 42 1012.5
20260504232017 75 293 0.9 4.3 0.00 0.00 0.00 41 1012.4
20260504231017 75 270 0.9 3.5 0.00 0.00 0.00 40 1012.2
20260504230017 76 270 0.9 4.3 0.00 0.00 0.00 39 1012.1
20260504225017 77 90 0.9 4.3 0.00 0.00 0.00 39 1012.2
20260504224037 77 293 1.7 6.1 0.00 0.00 0.00 38 1012.5
20260504223016 77 315 1.7 6.1 0.00 0.00 0.00 38 1012.5
20260504222017 78 270 1.7 8.7 0.00 0.00 0.00 37 1012.4
20260504221017 79 293 1.7 4.3 0.00 0.00 0.00 37 1012.3
20260504220017 79 293 2.6 8.7 0.00 0.00 0.00 36 1012.3
20260504215016 80 293 1.7 7.0 0.00 0.00 0.00 36 1012.3
20260504214017 80 270 1.7 7.0 0.00 0.00 0.00 36 1012.2
20260504213018 80 293 0.9 3.5 0.00 0.00 0.00 36 1012.2
20260504212016 80 45 1.7 4.3 0.00 0.00 0.00 36 1012.3
20260504211036 80 270 2.6 7.0 0.00 0.00 0.00 35 1012.3
20260504210017 80 315 1.7 7.0 0.00 0.00 0.00 36 1012.2
20260504205017 80 270 1.7 3.5 0.00 0.00 0.00 36 1012.2
20260504204037 80 270 2.6 9.6 0.00 0.00 0.00 36 1012.3
20260504203017 80 338 0.9 3.5 0.00 0.00 0.00 35 1012.4
20260504202017 79 293 1.7 4.3 0.00 0.00 0.00 36 1012.5
20260504201017 79 293 2.6 7.0 0.00 0.00 0.00 37 1012.7
20260504200037 78 293 2.6 9.6 0.00 0.00 0.00 37 1012.6
20260504195017 79 293 2.6 7.0 0.00 0.00 0.00 37 1012.7
20260504194017 79 270 1.7 4.3 0.00 0.00 0.00 37 1013.0
20260504193017 78 293 1.7 6.1 0.00 0.00 0.00 36 1013.2
20260504192017 78 293 1.7 5.2 0.00 0.00 0.00 37 1013.5
20260504191016 77 293 2.6 6.1 0.00 0.00 0.00 37 1013.6
20260504190017 78 90 1.7 6.1 0.00 0.00 0.00 36 1013.6
20260504185017 77 315 1.7 9.6 0.00 0.00 0.00 37 1013.9
20260504184016 76 293 2.6 7.8 0.00 0.00 0.00 37 1014.0
20260504183017 75 293 1.7 5.2 0.00 0.00 0.00 35 1014.0
20260504182016 75 270 2.6 6.1 0.00 0.00 0.00 36 1014.1
20260504181017 76 293 1.7 5.2 0.00 0.00 0.00 37 1014.1
20260504180017 75 293 1.7 5.2 0.00 0.00 0.00 38 1014.2
20260504175017 75 293 2.6 7.0 0.00 0.00 0.00 36 1014.3
20260504174016 75 270 1.7 5.2 0.00 0.00 0.00 35 1014.4
20260504173016 76 270 1.7 4.3 0.00 0.00 0.00 34 1014.5
20260504172016 77 270 1.7 6.1 0.00 0.00 0.00 35 1014.5
20260504171016 76 90 1.7 5.2 0.00 0.00 0.00 36 1014.6
20260504151016 72 68 1.7 3.5 0.00 0.00 0.00 39 1016.0
20260504141016 68 270 0.9 2.6 0.00 0.00 0.00 48 1016.2
20260504081016 45 0.0 0.0 0.00 0.00 0.00 87 1017.2
20260504050016 41 0.0 0.0 0.00 0.00 0.00 87 1017.2
20260504045016 41 0.0 0.0 0.00 0.00 0.00 87 1017.2
20260504044015 41 0.0 0.0 0.00 0.00 0.00 87 1017.2
20260504043016 41 0.0 0.0 0.00 0.00 0.00 86 1017.0
20260504042015 41 0.0 0.0 0.00 0.00 0.00 86 1017.1
20260504041015 41 0.0 0.0 0.00 0.00 0.00 86 1017.1
20260504040036 41 0.0 0.0 0.00 0.00 0.00 86 1016.9
20260504035035 41 0.0 0.0 0.00 0.00 0.00 86 1016.8
20260504034015 40 0.0 0.0 0.00 0.00 0.00 85 1016.8
20260504033015 40 0.0 0.0 0.00 0.00 0.00 85 1016.9
20260504032015 40 0.0 0.0 0.00 0.00 0.00 84 1016.9
20260504031015 41 0.0 0.0 0.00 0.00 0.00 84 1016.9
20260504030015 41 0.0 0.0 0.00 0.00 0.00 83 1016.8
20260504025015 42 0.0 0.0 0.00 0.00 0.00 82 1016.8
20260504024015 42 0.0 0.0 0.00 0.00 0.00 82 1016.9
20260504023015 42 0.0 0.0 0.00 0.00 0.00 81 1016.9
20260504022015 43 0.0 0.0 0.00 0.00 0.00 81 1016.9
20260504021015 44 0.0 0.0 0.00 0.00 0.00 79 1016.7
20260504020035 44 0.0 0.0 0.00 0.00 0.00 78 1016.6
20260504015035 45 0.0 0.0 0.00 0.00 0.00 78 1016.6